Flag for Germany Weather past 2 weeks in Eckernförde, Schleswig-Holstein, Germany

Now
49 °F

Overcast.


Feels Like: 47 °F
Forecast: 40 / 60 °F
Wind: 5 mph from East

Location: Schleswig


UV Index: 3 (Moderate)

Visibility: 14 mi


Pressure: 30.19 "Hg

Humidity: 86%

Dew point: 45 °F

Location of EckernfördeLocation

Historic Weather in Eckernförde

°F

Eckernförde temperature yesterday

Maximum temperature yesterday: 52 °F (at 12:00 PM)
Minimum temperature yesterday: 46 °F (at 10:00 PM)
Average temperature yesterday: 49 °F

Past Weeks' High & Low Weather Summary

 TemperatureHumidityPressure
High63 °F (Apr 20, 4:00 PM)100% (Apr 12, 5:00 AM)30.47 "Hg (Apr 12, 5:00 AM)
Low33 °F (Apr 16, 6:00 AM)31% (Apr 16, 12:00 PM)29.63 "Hg (Apr 14, 7:00 AM)
Average48 °F79%30.04 "Hg
* Reported Apr 9 5:00 PM — Apr 24 5:00 PM, Eckernförde, Weather by CustomWeather, © 2014

Note: Actual official high and low records may vary slightly from our data, if they occured in-between our weather recording intervals... More about our weather records

Advertising

Historic Weather Conditions — Data for Previous 24 hours

 ConditionsComfort  
Time TempWeatherWind HumidityBarometerVisibility
5:00 PM
Apr 24
49 °FOvercast.6 mph85%30.19 "Hg14 mi
4:00 PM49 °FLow clouds.6 mph85%30.20 "Hg14 mi
3:00 PM48 °FLow clouds.6 mph88%30.22 "Hg11 mi
2:00 PM48 °FLow clouds.6 mph88%30.22 "Hg11 mi
1:00 PM47 °FLow clouds.5 mph88%30.22 "Hg11 mi
12:00 PM46 °FLow clouds.6 mph88%30.23 "Hg12 mi
10:00 AM45 °FLow clouds.6 mph90%30.23 "Hg16 mi
9:00 AM45 °FLow clouds.6 mph90%30.23 "Hg12 mi
8:00 AM44 °FLow clouds.7 mph90%30.23 "Hg14 mi
7:00 AM44 °FLow clouds.6 mph90%30.22 "Hg16 mi
6:00 AM44 °FOvercast.6 mph89%30.22 "Hg16 mi
4:00 AM44 °FOvercast.7 mph88%30.23 "Hg12 mi
3:00 AM45 °FOvercast.7 mph88%30.24 "Hg12 mi
2:00 AM45 °FOvercast.6 mph88%30.24 "Hg12 mi
1:00 AM46 °FOvercast.6 mph88%30.24 "Hg12 mi
12:00 AM46 °FOvercast.6 mph89%30.24 "Hg12 mi
10:00 PM
Apr 23
46 °FFog.6 mph95%30.22 "Hg4 mi
9:00 PM47 °FLow clouds.6 mph95%30.21 "Hg5 mi
8:00 PM48 °FFog.5 mph95%30.20 "Hg4 mi
7:00 PM49 °FLow clouds.3 mph93%30.20 "Hg6 mi
6:00 PM49 °FLow clouds.5 mph90%30.19 "Hg7 mi
Weather by CustomWeather, © 2014

See weather overview